www.pogodaiklimat.ru

АРХИВ ПОГОДЫ в Атланте

Время (UTC), дата Ветер
(напр.,м/с)
 
Видим.   Явления Облачность Т
(С)
Тd
(С)
f
(%)
Тe
(С)
Тes
(С)
Комфортность

P
(гПа)

Po
(гПа)
Тmin
(С)
Tmax
(С)
R
(мм)
SD
(см)
12:52 17.12 ЮВ  16 км    10/0 3000 м
[средняя верхняя] 
+3.3  -0.6  76  -0  -0      986.1         
13:52 17.12 ЮВ  16 км    10/0 0 м
[средняя верхняя] 
+5.0  -1.1  65  +1  +1      985.8         
14:52 17.12 СЗ  16 км    10/0 2700 м
[средняя верхняя] 
+7.0  0.0  61  +4  +5    1025.9  987.8         
15:52 17.12 С  16 км    10/0 2550 м
[средняя] 
+7.8  0.0  58  +7  +8    1026.2  988.1         
16:52 17.12 В  14 км  слабый дождь  10/0 2250 м
[средняя] 
+8.9  0.0  54  +7  +9    1024.7  986.8         
17:52 17.12 В  10 км  слабый дождь  10/0 2250 м
[средняя] 
+7.2  +3.3  76  +5  +6    1023.7  985.8  +2.2  +9.4     
18:52 17.12 ЮВ  6 км  дождь, дымка  10/0 2250 м
[средняя] 
+7.0  +4.0  81  +4  +6    1022.9  984.8         
19:24 17.12 ЮВ  6 км  слабый дождь, дымка  10/8 660 м
[средняя] 
+7.0  +4.0  81  +4  +4      984.2         
19:52 17.12 нст  5 км  слабый дождь, дымка  10/10 450 м  +6.0  +6.0  100  +4  +4    1022.5  984.5         
19:56 17.12 ЮВ  3 км  дождь, дымка  10/10 450 м  +6.1  +5.6  97  +3  +3      984.8         
20:10 17.12 В  5 км  слабый дождь, дымка  10/10 480 м  +6.1  +5.6  97  +3  +3      984.2         
20:52 17.12 СВ  5 км  слабый дождь, дымка  10/10 450 м  +6.7  +5.6  93  +4  +4    1022.3  984.2         
21:26 17.12 СВ  6 км  дымка  10/10 420 м  +6.7  +6.1  96  +4  +4      984.2         
21:45 17.12 В  6 км  слабый дождь, дымка  10/10 420 м  +7.0  +6.0  93  +4  +4      984.2         
21:52 17.12 В  8 км  дымка  10/10 420 м  +7.2  +6.1  93  +4  +4    1022.3  984.2         
22:18 17.12 В  8 км  слабая морось, дымка  10/10 210 м  +7.0  +6.0  93  +4  +4      984.2         
22:52 17.12 В  10 км  дымка  10/10 180 м  +6.7  +6.1  96  +2  +2    1021.7  983.5         
23:52 17.12 СВ  8 км  дымка  10/10 120 м  +7.0  +7.0  100  +3  +3    1022.5  984.5  +6.1  +7.8     
00:52 18.12 СВ  10 км  слабая морось, дымка  10/10 180 м  +7.8  +6.7  93  +4  +4    1022.7  984.8         
01:52 18.12 В  10 км  слабая морось, дымка  10/10 450 м  +8.0  +7.0  93  +5  +5    1022.3  984.2         
02:00 18.12 В  11 км  слабая морось  10/10 420 м  +7.8  +7.2  96  +5  +5      984.5         
02:52 18.12 В  11 км  слабая морось  10/10 300 м  +8.0  +7.0  93  +5  +5    1022.1  984.2         
03:38 18.12 В  10 км  слабая морось, дымка  10/10 270 м  +8.0  +7.0  93  +5  +5      984.2         
03:52 18.12 В  11 км    10/10 270 м  +8.3  +7.2  93  +6  +6    1021.9  984.2         
04:52 18.12 В  10 км  дымка  10/10 210 м  +8.0  +8.0  100  +6  +6    1021.9  984.2         
05:52 18.12 В  10 км  дымка  10/10 180 м  +8.0  +8.0  100  +6  +6    1021.7  983.9  +7.2       
06:52 18.12 штиль  8 км  дымка  10/10 150 м  +8.0  +8.0  100  +7  +7    1022.1  984.2         
07:16 18.12 штиль  4 км  дымка  10/10 120 м  +8.3  +8.3  100  +7  +7      984.2         
07:31 18.12 штиль  3 км  дымка  10/10 120 м  +8.3  +8.3  100  +7  +7      984.2         
07:52 18.12 штиль  2 км  дымка  10/10 90 м  +8.3  +8.3  100  +7  +7    1022.1  984.2         
08:03 18.12 штиль  800 м  туман  ?/?  +8.0  +8.0  100  +7  +7      984.2         
08:52 18.12 СВ  800 м  туман  ?/?  +8.0  +8.0  100  +5  +5    1021.6  983.9         
09:52 18.12 штиль  800 м  туман  ?/?  +8.0  +8.0  100  +7  +7    1021.3  983.5         
10:08 18.12 штиль  400 м  туман  ?/?  +8.0  +8.0  100  +7  +7      983.5         
10:52 18.12 штиль  400 м  туман  ?/?  +8.0  +8.0  100  +7  +7    1022.0  984.2         
11:52 18.12 штиль  400 м  туман  ?/?  +8.9  +8.9  100  +8  +8    1022.3  984.5  +8.3  +8.9     
12:52 18.12 штиль  400 м  туман  ?/?  +9.0  +9.0  100  +8  +8    1022.7  984.8         
13:10 18.12 штиль  800 м  туман  10/10 90 м  +9.0  +9.0  100  +8  +8      984.8         
13:35 18.12 штиль  1 км  дымка  10/8 90 м
[средняя] 
+8.9  +8.9  100  +8  +8      984.8         
13:37 18.12 штиль  2 км  дымка  10/8 90 м
[средняя] 
+9.4  +9.4  100  +8  +8      984.8         
13:47 18.12 штиль  2 км  дымка  10/5 60 м
[средняя] 
+9.0  +9.0  100  +8  +8      985.2         
13:52 18.12 штиль  2 км  дымка  10/5 60 м
[средняя] 
+8.9  +8.9  100  +8  +8    1022.9  985.2         
14:03 18.12 штиль  4 км  дымка  10/2 60 м
[средняя] 
+9.4  +9.4  100  +8  +9               
14:50 18.12 СЗ  5 км  дымка, туман поземный  8/2 120 м
[средняя верхняя] 
+10.0  +10.0  100  +7  +8      985.5         
14:52 18.12 СЗ  5 км  дымка, туман поземный  8/2 120 м
[средняя верхняя] 
+10.0  +10.0  100  +7  +8    1023.3  985.5         
15:07 18.12 СЗ  800 м  дымка, туман поземный  8/8 120 м
[средняя верхняя] 
+10.6  +10.6  100  +9  +9               
15:11 18.12 З  2 км  дымка, туман поземный  8/5 120 м
[средняя верхняя] 
+10.6  +10.6  100  +9  +10               
15:52 18.12 З  2 км  дымка, туман поземный  8/8 120 м
[средняя верхняя] 
+11.1  +11.1  100  +10  +11    1023.4           

 

Местоположение метеостанции Hartsfield-Jackson Atlanta International Airport: широта 33.6403 долгота -84.4269 высота над уровнем моря 313 м.

В архиве по умолчанию представлена погода в Атланте за последние 1-2 суток. Обновление информации о фактической погоде в базе происходит ежечасно! Архивные данные за месяц целиком и за предыдущие месяцы Вы можете получить, выбрав интересующий диапазон дат из раскрывающегося списка и нажав кнопку "Ввод!".

Внимание! Архив погоды МЕТАР в базе сайта в настоящее время начинается c 1 января 2013 г. Нет смысла пытаться выбрать более раннюю дату.

Внимание! Время в таблицах - всемирное. Для получения местного времени необходимо прибавить поправку, которая в Атланте равна -5 ч.

Ветер - указаны скорость ветра в м/с и направление, откуда дует ветер: С - северный, СВ - северо-восточный, В - восточный, ЮВ - юго-восточный, Ю - южный, ЮЗ - юго-западный, З - западный, СЗ - северо-западный.
Видимость - горизонтальная дальность видимости в метрах или километрах. При видимости от 1 до 10 км при отсутствии осадков обычно наблюдается дымка, при ухудшении видимости до 1 км и менее - туман. В сухую погоду видимость может ухудшаться дымом, пылью или мглою.
Атмосферные явления - указаны явления, наблюдавшиеся в указанный момент времени.
Облачность - указаны через наклонную черту верхняя и нижняя облачность в баллах и высота нижней границы облаков в метрах. Внимание: облачность, как и прочие метеорологические величины в США измеряются автоматическими метеостанциями. Указанные значения в баллах носят условный характер и показывают процент времени, в течение которого, в среднем, лазерный луч высотомера отражался от облаков обратно.
T - Температура воздуха - температура, измеренная на высоте 2 м над землей.
Td - Температура точки росы - температура, при понижении до которой содержащийся в воздухе водяной пар достигнет насыщения.
f - Относительная влажность воздуха - влажноcть воздуха, измеренная на высоте 2 м над землей.
Te - Эффективная температура - температура, которую ощущает одетый по сезону человек в тени. Характеристика душности погоды. При расчете учитывается влияние влажности воздуха и скорости ветра на теплоощущения человека.
Tes - Эффективная температура на солнце - температура, которую ощущает человек, с поправкой на солнечный нагрев. Характеристика знойности погоды. Зависит от высоты солнца над горизонтом, облачности и скорости ветра. Ночью, в пасмурную погоду, а также при ветре 12 м/с и более поправка равна нулю.
P - Атмосферное давление - приведенное к уровню моря атмосферное давление.
Po - Атмосферное давление - измеренное на уровне метеостанции атмосферное давление.
Tmin - Минимальная температура - минимум температуры воздуха на высоте 2 м над землей.
Tmax - Максимальная температура - максимум температуры воздуха на высоте 2 м над землей.
R - Количество осадков - Количество выпавших осадков за 3 или 6 часов, мм.
SD - Снежный покров - Высота снежного покрова, см.